Weather in Gvozdevo

Russia / Primorsky Krai     42°41′34″N   130°54′47″E
temp.,
°C
wind,
m/s
gust,
m/s
humid.,
%
clouds,
%
prec.,
mm/h
press.,
hPa
HPBL,
m
29 november, mon
mon2901:000nw115786 0.0 102514
04:000wnw115654 0.0 102415
07:00+1nw225834 0.0 102315
10:00+3w246048 0.0 1023100
13:00+6w41262100 0.0 1022851
16:00+7wnw5126596 0.0 10221029
19:00+3nw2478100 0.0 102368
22:00+2ne118394 0.0 102328
30 november, tue
tue3001:000ne2388100 0.0 102374
04:00−1nne2382100 0.1 1021174
07:00−1nne2583100 0.1 1017212
10:00−1ne3794100 1.8 1014393
13:00−1nne31095100 5.2 1008408
16:00−2n51293100 12.9 1001364
19:00−4n61786100 7.2 1001682
22:00−4nw388495 7.3 1001343
1 december, wed
wed101:00−5nw61471100 0.0 10021028
04:00−6nw81567100 0.0 10031140
07:00−7wnw71567100 0.0 10051246
10:00−7wnw81467100 0.0 10081189
13:00−6wnw916664 0.0 10081391
16:00−7wnw917677 0.0 10091440
19:00−9wnw916630 0.0 10111031
22:00−9wnw1018640 0.0 1013971
2 december, thu
thu201:00−9wnw918673 0.0 1015998
04:00−8wnw718692 0.0 1014991
07:00−8w412705 0.0 1014625
10:00−8wnw14765 0.0 1013143
13:00−3wsw26645 0.0 1009323
16:000sw247144 0.0 1007205
19:00−5nw1186100 0.0 100620
22:00−5wnw218810 0.0 100521
3 december, fri
fri301:00−5wnw36887 0.0 100798
04:00−5w713753 0.0 1009749
07:00−7wnw715723 0.0 1011906
10:00−7wnw815690 0.0 1014878
13:00−5wnw586343 0.0 10161212
16:00−5wnw586613 0.0 10171057
19:00−8nw512705 0.0 1020514
22:00−8wnw51373100 0.0 1021550